Regional Weather Roundup
Issued by NWS

Home | Current Version | Previous Version | Graphics & Text | Print | Product List | Glossary On
Versions: 1 2 3 4 5 6 7 8 9 10 11 12 13 14 15 16 17 18 19 20 21 22 23 24 25 26 27 28 29 30 31 32 33 34 35 36 37 38 39 40 41 42 43 44 45 46 47 48 49 50
000
ASUS43 KLOT 150508
RWRIL

ILLINOIS REGIONAL WEATHER ROUNDUP
NATIONAL WEATHER SERVICE CHICAGO/ROMEOVILLE IL
1100 PM CST THU DEC 14 2017

NOTE: "FAIR" INDICATES FEW OR NO CLOUDS BELOW 12,000 FEET WITH NO
SIGNIFICANT WEATHER AND/OR OBSTRUCTIONS TO VISIBILITY.

* THESE STATIONS ARE NOT UNDER NWS QUALITY CONTROL. THEY ALSO MAY NOT
  REPORT WEATHER SUCH AS PRECIPITATION OR FOG.

ILZ001-002-007-009-015-016-024-150600-
NORTHWEST ILLINOIS

CITY           SKY/WX    TMP DP  RH WIND       PRES   REMARKS
MOLINE         CLOUDY    26  17  68 SW8       30.05F WCI  18
STERLING*        N/A     25  18  74 MISG        N/A
SAVANNA*       CLOUDY    25  17  70 SW9       30.04S WCI  16
$$

ILZ003-004-008-010-011-017-018-150600-
NORTH CENTRAL ILLINOIS

CITY           SKY/WX    TMP DP  RH WIND       PRES   REMARKS
ROCKFORD       CLOUDY    21  14  74 S6        30.03F WCI  13
FREEPORT*      CLOUDY    23  17  77 SW8       30.03S WCI  14
ROCHELLE*      CLOUDY    20  15  79 S5        30.04F WCI  14
DE KALB*       CLOUDY    21  14  72 SW5       30.03F WCI  15
PERU*          CLOUDY    21  13  71 SW5       30.06F WCI  15
$$

ILZ005-006-012>014-019>023-150600-
NORTHEAST ILLINOIS

CITY           SKY/WX    TMP DP  RH WIND       PRES   REMARKS
CHICAGO-OHARE  MOCLDY    20  11  68 SW5       30.03F WCI  13
CHICAGO-MIDWAY MOCLDY    21  11  65 W5        30.05F WCI  15
AURORA         CLOUDY    15  10  80 CALM      30.05F
LANSING*       CLEAR     15  12  88 CALM      30.06F
JOLIET*        MOCLDY    16  13  88 CALM      30.06F
WAUKEGAN       CLOUDY    20  13  74 SW7       30.01F WCI  11
DUPAGE AIRPORT MOCLDY    15  10  80 SW5       30.03F WCI   8
KANKAKEE*      CLEAR     17   9  71 CALM      30.07F
WHEELING       CLOUDY    23  12  62 SW5       30.05F WCI  17
MORRIS*        CLOUDY    15   9  76 SW3       30.05F
ROMEOVILLE*    CLOUDY    16  11  82 CALM      30.05F
NORTHERLY ISL    N/A     24  12  60 W8          N/A  WCI  15
$$

LMZ740>746-150600-
SOUTHERN LAKE MICHIGAN

STATION/POSITION SKY/WX   TEMP    WIND        PRES    VSBY  WAVE
                          AIR SEA DIR/SP/G                  HT/PER
                          (F)     (DEG/KT/KT) (MB)    (MI)  (FT/S)
HARRISON CRIB              25     270/ 10/ 12   N/A
BURNHAM HARBOR             24     240/  6/  8   N/A
CALUMET HARBOR             21     220/  4/  5 1017.0F
BURNS HARBOR               24     210/  6/  9 1017.9F
MICHIGAN CITY              26     250/ 12/ 15   N/A
$$

ILZ025>027-034>036-040-047-049-050-058-095>099-150600-
WEST-CENTRAL ILLINOIS

CITY           SKY/WX    TMP DP  RH WIND       PRES   REMARKS
QUINCY         CLOUDY    28  20  71 SW6       30.10F WCI  22
GALESBURG*     CLOUDY    26  19  76 SW3       30.07F
MACOMB*        CLOUDY    27  18  71 W3        30.10F
JACKSONVILLE*  CLOUDY    27  17  67 SW5       30.12R WCI  21
PITTSFIELD*    CLOUDY    28  19  69 W3        30.12S
$$

ILZ028>032-037-038-041>044-048-051>054-059>061-150600-
CENTRAL ILLINOIS

CITY           SKY/WX    TMP DP  RH WIND       PRES   REMARKS
PONTIAC        CLEAR     13  10  87 CALM      30.08S
BLOOMINGTON    CLOUDY    18  12  77 S3        30.07F
DECATUR        PTCLDY    23  16  74 W5        30.10S WCI  17
PEORIA         CLOUDY    25  16  68 SW6       30.08F WCI  18
LACON*         CLOUDY    22  17  80 CALM      30.07S
LINCOLN*       PTCLDY    24  18  78 CALM      30.09F
SPRINGFIELD    PTCLDY    24  16  71 SW9       30.11S WCI  14
TAYLORVILLE    CLOUDY    26  18  70 W5        30.11R WCI  20
$$

ILZ033-039-045-046-055>057-062-063-150600-
EAST-CENTRAL ILLINOIS

CITY           SKY/WX    TMP DP  RH WIND       PRES   REMARKS
CHAMPAIGN      CLOUDY    21  14  74 W6        30.08S WCI  13
DANVILLE*      CLOUDY    22  17  80 W3        30.05S
RANTOUL*       PTCLDY    21  15  78 CALM      30.08S
MATTOON        MOCLDY    23  17  78 NW6       30.08F WCI  16
PARIS*         CLOUDY    27  20  75 W6        30.09S WCI  20
$$

ILZ079-100>102-150600-
SOUTHWEST ILLINOIS

CITY           SKY/WX    TMP DP  RH WIND       PRES   REMARKS
ALTON          CLOUDY    28  21  74 W5        30.13F WCI  23
BELLEVILLE     CLOUDY    31  19  60 NW9       30.12F WCI  23
CAHOKIA*       CLOUDY    30  18  60 NW7       30.14S WCI  23
SPARTA*        CLOUDY    30  22  72 CALM      30.15S
$$

ILZ064>066-069>071-074>076-080>082-084>086-088>090-092>094-150600-
SOUTH-CENTRAL ILLINOIS

CITY           SKY/WX    TMP DP  RH WIND       PRES   REMARKS
CARBONDALE     CLOUDY    30  23  75 CALM      30.14F
CAIRO*         CLOUDY    32  24  72 CALM      30.14F
EFFINGHAM*     CLOUDY    29  20  69 W7        30.13S WCI  22
MARION         CLOUDY    32  21  64 CALM      30.14F
MT. VERNON     CLOUDY    30  21  69 VRB3      30.13S
CENTRALIA*     CLOUDY    31  22  68 NW3       30.12S
SALEM*         CLOUDY    31  20  63 CALM      30.12S
METROPOLIS*    CLOUDY    32  22  66 NW3       30.14F
$$

ILZ067-068-072-073-078-083-087-091-150600-
SOUTHEAST ILLINOIS

CITY           SKY/WX    TMP DP  RH WIND       PRES   REMARKS
LAWRENCEVILLE  CLOUDY    30  22  72 W5        30.11F WCI  25
FLORA*         CLOUDY    32  22  68 NW7       30.12F WCI  25
FAIRFIELD*     CLOUDY    31  21  66 CALM      30.12S
HARRISBURG*    CLOUDY    31  22  67 NW5       30.14S WCI  26
ROBINSON*      CLOUDY    28  23  83 CALM      30.11F
CARMI*         CLOUDY    31  25  78 SW5       30.12S WCI  26
$$

ABBREVIATIONS USED IN REMARKS
   TC - TEMPERATURE IN CELSIUS
  WCI - WIND CHILL INDEX
   HX - HEAT INDEX
  VSB - VISIBILITY
$$





USA.gov is the U.S. government's official web portal to all federal, state and local government web resources and services.